Date String (YYYY-MM-DD hh:mm:ss) UTC,Instrument flags,absolute air pressure of the measurement (hPa),sample flow rate (lpm),inlet stack bypass flow (lpm),air temperature of the measurement (°C),ambient temperature measured by the external sensor (°C),aerosol sample conditioner tube jacket temperature (°C),OPC LED temperature (°C),internal box temperature (°C),relative humidity of the measurement (%),span deviation,mass concentration of particles derived from Lorenz-Mie calculation of OPC scattering (μg/m³),mass concentration of particles derived from Lorenz-Mie calculation of OPC scattering (μg/m³),mass concentration of particles derived from Lorenz-Mie calculation of OPC scattering (μg/m³)
DateTimeUTC,F1_M11,P_M11,Q1_M11,Q2_M11,T1_M11,T2_M11,T3_M11,T4_M11,T5_M11,U1_M11,ZSPAN_M11,X0_M11,X2_M11,X1_M11
2024-04-10 14:00:00,SystemResetWarning,0830.1,5.01,000.00,024.0,023.4,000.0,032.5,025.9,012.7,0000.0,0004.76,0001.60,0000.72
2024-04-10 14:01:00,SystemResetWarning,0830.2,5.00,000.00,024.0,023.4,000.0,032.5,025.9,012.8,0000.0,0004.69,0001.55,0000.71
2024-04-10 14:02:00,SystemResetWarning,0830.1,5.00,000.00,024.0,023.4,000.0,032.5,025.9,012.6,0000.0,0004.70,0001.53,0000.71
2024-04-10 14:03:00,SystemResetWarning,0830.1,5.00,000.00,024.0,023.4,000.0,032.5,025.9,012.8,0000.0,0004.63,0001.50,0000.70
2024-04-10 14:04:00,SystemResetWarning,0830.1,5.00,000.00,024.0,023.4,000.0,032.5,025.9,012.7,0000.0,0004.56,0001.45,0000.70
2024-04-10 14:05:00,SystemResetWarning,0830.1,5.00,000.00,024.0,023.4,000.0,032.5,025.9,012.4,0000.0,0004.59,0001.46,0000.71
2024-04-10 14:06:00,SystemResetWarning,0830.1,5.00,000.00,024.0,023.4,000.0,032.5,025.9,012.4,0000.0,0004.49,0001.47,0000.72
2024-04-10 14:07:00,SystemResetWarning,0830.1,5.00,000.00,024.0,023.4,000.0,032.5,025.9,012.2,0000.0,0005.94,0001.49,0000.73
2024-04-10 14:08:00,SystemResetWarning,0830.2,5.00,000.00,024.0,023.4,000.0,032.5,025.9,012.2,0000.0,0006.72,0001.49,0000.73
2024-04-10 14:09:00,SystemResetWarning,0830.2,5.00,000.00,024.0,023.4,000.0,032.5,025.9,012.2,0000.0,0006.73,0001.59,0000.75
2024-04-10 14:10:00,SystemResetWarning,0830.2,5.00,000.00,024.0,023.4,000.0,032.5,025.9,012.1,0000.0,0006.75,0001.67,0000.76
2024-04-10 14:11:00,SystemResetWarning,0830.2,5.00,000.00,024.0,023.4,000.0,032.5,025.9,012.4,0000.0,0006.83,0001.68,0000.76
2024-04-10 14:12:00,SystemResetWarning,0830.2,5.00,000.00,024.0,023.4,000.0,032.5,025.9,012.2,0000.0,0006.92,0001.66,0000.77
2024-04-10 14:13:00,SystemResetWarning,0830.2,5.00,000.00,024.0,023.4,000.0,032.5,025.9,011.8,0000.0,0007.76,0001.73,0000.79
2024-04-10 14:14:00,SystemResetWarning,0830.2,5.00,000.00,024.0,023.4,000.0,032.5,025.9,011.7,0000.0,0007.80,0001.78,0000.80
2024-04-10 14:15:00,SystemResetWarning,0830.2,5.00,000.00,024.0,023.4,000.0,032.5,025.9,011.6,0000.0,0007.84,0001.80,0000.80
2024-04-10 14:16:00,SystemResetWarning,0830.2,4.99,000.00,024.0,023.4,000.0,032.5,025.9,011.9,0000.0,0007.86,0001.82,0000.81
2024-04-10 14:17:00,SystemResetWarning,0830.2,5.00,000.00,024.0,023.4,000.0,032.5,025.9,011.7,0000.0,0007.97,0001.82,0000.81
2024-04-10 14:18:00,SystemResetWarning,0830.2,5.00,000.00,024.0,023.4,000.0,032.5,025.9,011.6,0000.0,0007.60,0001.83,0000.81
2024-04-10 14:19:00,SystemResetWarning,0830.3,5.00,000.00,024.1,023.4,000.0,032.5,025.9,011.5,0000.0,0006.99,0001.86,0000.82
2024-04-10 14:20:00,SystemResetWarning,0830.2,5.00,000.00,024.1,023.4,000.0,032.5,025.9,011.6,0000.0,0006.46,0001.89,0000.83
2024-04-10 14:21:00,SystemResetWarning,0830.2,5.00,000.00,024.1,023.4,000.0,032.5,025.9,011.9,0000.0,0006.38,0001.89,0000.83
2024-04-10 14:22:00,SystemResetWarning,0830.2,5.00,000.00,024.1,023.4,000.0,032.5,025.9,011.4,0000.0,0006.28,0001.90,0000.84
2024-04-10 14:23:00,SystemResetWarning,0830.2,5.00,000.00,024.1,023.4,000.0,032.5,025.9,011.3,0000.0,0006.37,0001.94,0000.84
2024-04-10 14:24:00,SystemResetWarning,0830.2,5.00,000.00,024.1,023.4,000.0,032.5,025.9,011.4,0000.0,0005.14,0001.92,0000.84
2024-04-10 14:25:00,SystemResetWarning,0830.2,5.01,000.00,024.1,023.5,000.0,032.5,025.9,011.5,0000.0,0004.91,0001.89,0000.84
2024-04-10 14:26:00,SystemResetWarning,0830.2,5.01,000.00,024.1,023.5,000.0,032.5,026.0,011.3,0000.0,0005.05,0001.86,0000.85
2024-04-10 14:27:00,SystemResetWarning,0830.2,4.99,000.00,024.1,023.5,000.0,032.5,025.9,010.8,0000.0,0007.27,0001.93,0000.86
2024-04-10 14:28:00,SystemResetWarning,0830.3,5.00,000.00,024.1,023.5,000.0,032.5,025.9,010.7,0000.0,0007.49,0001.95,0000.87
2024-04-10 14:29:00,SystemResetWarning,0830.3,5.00,000.00,024.1,023.5,000.0,032.5,026.0,010.5,0000.0,0007.30,0001.93,0000.88
2024-04-10 14:30:00,SystemResetWarning,0830.3,5.00,000.00,024.1,023.5,000.0,032.5,026.0,010.5,0000.0,0006.90,0001.92,0000.88
2024-04-10 14:31:00,SystemResetWarning,0830.3,5.00,000.00,024.1,023.5,000.0,032.5,026.0,010.5,0000.0,0007.05,0001.93,0000.88
2024-04-10 14:32:00,SystemResetWarning,0830.3,5.00,000.00,024.1,023.5,000.0,032.5,026.0,010.7,0000.0,0007.03,0001.90,0000.87
2024-04-10 14:33:00,SystemResetWarning,0830.2,5.01,000.00,024.1,023.5,000.0,032.5,026.0,010.6,0000.0,0007.32,0001.95,0000.88
2024-04-10 14:34:00,SystemResetWarning,0830.2,5.00,000.00,024.1,023.6,000.0,032.5,026.0,010.5,0000.0,0007.53,0002.04,0000.89
2024-04-10 14:35:00,SystemResetWarning,0830.2,5.00,000.00,024.1,023.6,000.0,032.6,026.0,010.6,0000.0,0007.69,0002.15,0000.91
2024-04-10 14:36:00,SystemResetWarning,0830.2,5.00,000.00,024.2,023.6,000.0,032.6,026.0,010.7,0000.0,0007.82,0002.21,0000.90
2024-04-10 14:37:00,SystemResetWarning,0830.2,4.99,000.00,024.2,023.6,000.0,032.6,026.0,010.8,0000.0,0007.86,0002.24,0000.90
2024-04-10 14:38:00,SystemResetWarning,0830.2,5.00,000.00,024.2,023.6,000.0,032.6,026.0,010.7,0000.0,0006.78,0002.23,0000.90
2024-04-10 14:39:00,SystemResetWarning,0830.2,5.01,000.00,024.2,023.6,000.0,032.6,026.0,010.8,0000.0,0005.50,0002.22,0000.90
2024-04-10 14:40:00,SystemResetWarning,0830.2,5.01,000.00,024.2,023.7,000.0,032.6,026.0,011.2,0000.0,0005.61,0002.25,0000.90
2024-04-10 14:41:00,SystemResetWarning,0830.2,5.00,000.00,024.2,023.7,000.0,032.6,026.1,011.1,0000.0,0005.83,0002.26,0000.90
2024-04-10 14:42:00,SystemResetWarning,0830.3,5.00,000.00,024.2,023.7,000.0,032.6,026.1,010.6,0000.0,0006.48,0002.23,0000.90
2024-04-10 14:43:00,SystemResetWarning,0830.2,5.00,000.00,024.2,023.7,000.0,032.6,026.1,010.8,0000.0,0007.30,0002.26,0000.92
2024-04-10 14:44:00,SystemResetWarning,0830.2,5.00,000.00,024.3,023.7,000.0,032.6,026.1,011.1,0000.0,0007.20,0002.29,0000.91
2024-04-10 14:45:00,SystemResetWarning,0830.2,4.99,000.00,024.3,023.7,000.0,032.6,026.1,011.2,0000.0,0006.91,0002.25,0000.91
2024-04-10 14:46:00,SystemResetWarning,0830.2,4.99,000.00,024.3,023.7,000.0,032.6,026.1,010.7,0000.0,0006.89,0002.14,0000.89
2024-04-10 14:47:00,SystemResetWarning,0830.3,5.00,000.00,024.3,023.8,000.0,032.6,026.1,010.5,0000.0,0007.05,0002.08,0000.89
2024-04-10 14:48:00,SystemResetWarning,0830.2,5.01,000.00,024.3,023.7,000.0,032.6,026.1,010.7,0000.0,0007.97,0002.09,0000.90
2024-04-10 14:49:00,SystemResetWarning,0830.1,5.01,000.00,024.3,023.7,000.0,032.7,026.1,010.5,0000.0,0008.05,0002.11,0000.90
2024-04-10 14:50:00,SystemResetWarning,0830.2,5.01,000.00,024.3,023.7,000.0,032.7,026.1,011.1,0000.0,0008.05,0002.11,0000.90
2024-04-10 14:51:00,SystemResetWarning,0830.3,4.99,000.00,024.3,023.7,000.0,032.7,026.1,010.9,0000.0,0008.16,0002.11,0000.89
2024-04-10 14:52:00,SystemResetWarning,0830.3,4.99,000.00,024.3,023.7,000.0,032.7,026.2,010.9,0000.0,0008.06,0002.13,0000.89
2024-04-10 14:53:00,SystemResetWarning,0830.3,4.99,000.00,024.3,023.8,000.0,032.7,026.2,010.9,0000.0,0007.54,0002.12,0000.89
2024-04-10 14:54:00,SystemResetWarning,0830.3,5.00,000.00,024.3,023.8,000.0,032.7,026.2,010.7,0000.0,0007.06,0002.09,0000.88
2024-04-10 14:55:00,SystemResetWarning,0830.2,5.01,000.00,024.4,023.8,000.0,032.7,026.2,011.5,0000.0,0007.45,0002.08,0000.88
2024-04-10 14:56:00,SystemResetWarning,0830.2,5.00,000.00,024.4,023.8,000.0,032.7,026.2,012.1,0000.0,0007.51,0002.10,0000.88
2024-04-10 14:57:00,SystemResetWarning,0830.2,5.00,000.00,024.4,023.8,000.0,032.7,026.2,012.0,0000.0,0007.50,0002.10,0000.88
2024-04-10 14:58:00,SystemResetWarning,0830.2,4.99,000.00,024.4,023.9,000.0,032.7,026.2,011.4,0000.0,0008.03,0002.10,0000.89
2024-04-10 14:59:00,SystemResetWarning,0830.2,5.00,000.00,024.4,023.9,000.0,032.8,026.3,011.8,0000.0,0007.39,0002.13,0000.90
